Astoria, OR

2:59 PM PST on January 22, 2018 (GMT -0800)
Astoria Regional

Weather History for KAST - May, 2014

Change the Weather History Date:

Monday, May 26, 2014

  Actual Average Record
Temperature  
Mean Temperature 55 °F 54 °F  
Max Temperature 63 °F 62 °F 81 °F (1947)
Min Temperature 47 °F 47 °F 37 °F (1973)
Degree Days  
Heating Degree Days 10 11  
Month to date heating degree days 216 322  
Since 1 July heating degree days 4598 4731  
Cooling Degree Days 0 0  
Month to date cooling degree days 8 0  
Year to date cooling degree days 11 0  
Growing Degree Days 6 (Base 50)    
Moisture  
Dew Point 50 °F    
Average Humidity 74    
Maximum Humidity 93    
Minimum Humidity 55    
Precipitation  
Precipitation 0.13 in 0.10 in 1.17 in (1895)
Month to date precipitation 5.36 2.82  
Year to date precipitation 38.06 32.86  
Sea Level Pressure  
Sea Level Pressure 30.12 in    
Wind  
Wind Speed 7 mph (WSW)    
Max Wind Speed 18 mph    
Max Gust Speed 22 mph    
Visibility 8 miles    
Events Rain    
T = Trace of Precipitation, MM = Missing Value Source: NWS Daily Summary

Daily Weather History Graph

Daily Weather History Graph

Search for Another Location

Airport or City:

Trip Planner

Search our weather history database for the weather conditions in past years. The results will help you decide how hot, cold, wet, or windy it might be!

Date:

Astronomy

May. 26, 2014 Rise Set
Actual Time 5:31 AM PDT 8:53 PM PDT
Civil Twilight 4:54 AM PDT 9:30 PM PDT
Nautical Twilight 4:06 AM PDT 10:19 PM PDT
Astronomical Twilight 3:05 AM PDT 11:21 PM PDT
Moon 4:26 AM PDT (5/26) 6:55 PM PDT (5/26)
Length of Visible Light 16h 35m
Length of Day
15h 22m
Waning Crescent, 4% of the Moon is Illuminated
May 26
Waning Crescent
May 28
New
Jun 5
First Quarter
Jun 12
Full
Jun 19
Last Quarter

Hourly Weather History & Observations

Time (PDT) Temp. Dew Point Humidity Pressure Visibility Wind Dir Wind Speed Gust Speed Precip Events Conditions
12:02 AM 54.0 °F 52.0 °F 93% 29.98 in 4.0 mi East 5.8 mph - 0.00 in Rain Light Rain
12:17 AM 54.0 °F 52.0 °F 93% 29.99 in 5.0 mi Calm Calm - 0.01 in   Overcast
12:42 AM 55.0 °F 53.1 °F 93% 30.00 in 3.0 mi NNE 5.8 mph - 0.02 in Rain Light Rain
12:55 AM 55.0 °F 53.1 °F 93% 30.00 in 4.0 mi NNE 6.9 mph - 0.03 in Rain Light Rain
1:08 AM 55.0 °F 53.1 °F 93% 30.01 in 6.0 mi NNE 4.6 mph - 0.00 in   Overcast
1:28 AM 55.0 °F 53.1 °F 93% 30.02 in 4.0 mi Calm Calm - 0.00 in   Overcast
1:38 AM 55.0 °F 53.1 °F 93% 30.02 in 2.5 mi West 3.5 mph - 0.01 in Rain Light Rain
1:45 AM 55.0 °F 53.1 °F 93% 30.02 in 3.0 mi WSW 3.5 mph - 0.01 in Rain Light Rain
1:55 AM 55.0 °F 53.1 °F 93% 30.03 in 2.5 mi SW 4.6 mph - 0.01 in Rain Light Rain
2:27 AM 55.0 °F 53.1 °F 93% 30.04 in 4.0 mi SW 4.6 mph - 0.02 in Rain Light Rain
2:39 AM 55.0 °F 53.1 °F 93% 30.04 in 2.0 mi WSW 8.1 mph - 0.04 in Rain Light Rain
2:46 AM 55.0 °F 53.1 °F 93% 30.04 in 2.5 mi SW 5.8 mph - 0.06 in Rain Light Rain
2:55 AM 55.0 °F 53.1 °F 93% 30.04 in 4.0 mi WSW 5.8 mph - 0.06 in Rain Light Rain
3:40 AM 55.0 °F 53.1 °F 93% 30.04 in 10.0 mi SSW 4.6 mph - 0.01 in Rain Light Rain
3:55 AM 55.0 °F 53.1 °F 93% 30.05 in 8.0 mi SW 3.5 mph - 0.01 in Rain Light Rain
4:55 AM 55.0 °F 51.1 °F 86% 30.07 in 10.0 mi WNW 9.2 mph - 0.00 in   Overcast
5:31 AM 54.0 °F 50.0 °F 86% 30.08 in 10.0 mi West 9.2 mph - 0.00 in   Overcast
5:55 AM 53.1 °F 48.9 °F 86% 30.09 in 10.0 mi West 6.9 mph - 0.00 in   Overcast
6:55 AM 54.0 °F 48.9 °F 83% 30.11 in 10.0 mi WSW 5.8 mph - N/A   Overcast
7:55 AM 55.0 °F 50.0 °F 83% 30.13 in 10.0 mi WSW 3.5 mph - N/A   Overcast
8:55 AM 57.9 °F 48.9 °F 72% 30.14 in 10.0 mi WSW 6.9 mph - N/A   Mostly Cloudy
9:55 AM 60.1 °F 48.9 °F 67% 30.15 in 10.0 mi SW 10.4 mph - N/A   Scattered Clouds
10:55 AM 59.0 °F 46.9 °F 64% 30.16 in 10.0 mi WSW 13.8 mph - N/A   Overcast
11:42 AM 62.1 °F 50.0 °F 65% 30.17 in 10.0 mi SSW 12.7 mph 19.6 mph N/A   Mostly Cloudy
11:55 AM 60.1 °F 48.9 °F 67% 30.17 in 10.0 mi SW 11.5 mph - N/A   Mostly Cloudy
12:20 PM 60.1 °F 48.9 °F 67% 30.18 in 10.0 mi West 8.1 mph - N/A   Overcast
12:55 PM 60.1 °F 48.9 °F 67% 30.19 in 10.0 mi WSW 11.5 mph - 0.00 in   Mostly Cloudy
1:48 PM 55.0 °F 50.0 °F 83% 30.21 in 2.5 mi SW 5.8 mph - 0.05 in Rain Light Rain
1:55 PM 55.9 °F 51.1 °F 84% 30.21 in 5.0 mi SW 6.9 mph - 0.05 in Rain Light Rain
2:55 PM 61.0 °F 48.9 °F 64% 30.21 in 10.0 mi WNW 8.1 mph - 0.00 in   Overcast
3:55 PM 60.1 °F 48.0 °F 64% 30.21 in 10.0 mi WNW 9.2 mph - N/A   Overcast
4:55 PM 62.1 °F 46.9 °F 58% 30.20 in 10.0 mi WNW 9.2 mph - N/A   Mostly Cloudy
5:55 PM 60.1 °F 44.1 °F 55% 30.19 in 10.0 mi West 8.1 mph - N/A   Partly Cloudy
6:55 PM 60.1 °F 44.1 °F 55% 30.19 in 10.0 mi WNW 8.1 mph - N/A   Clear
7:55 PM 57.0 °F 44.1 °F 62% 30.19 in 10.0 mi WNW 5.8 mph - N/A   Clear
8:55 PM 52.0 °F 45.0 °F 77% 30.19 in 10.0 mi West 4.6 mph - N/A   Clear
9:55 PM 50.0 °F 45.0 °F 83% 30.19 in 10.0 mi West 3.5 mph - N/A   Clear
10:55 PM 48.2 °F 44.6 °F 87% 30.19 in 10.0 mi SSE 3.5 mph - N/A   Clear
11:55 PM 48.0 °F 45.0 °F 89% 30.19 in 10.0 mi Calm Calm - N/A   Clear